This demonstration page uses our WeatherBlox Daily Observations layout. Learn more.

Left ArrowRight Arrow

Hourly Observations for December 23, 2020

Temp ( °F °C ) Dew Point ( °F °C ) Humidity (%) Winds ( mph kmh ) Pressure ( in mb ) Visibility ( mi km ) Precip ( " mm )
12:56 am 00:56 Clear 37 2.8 31 -0.6 79 79 WNW 10 17 29.37 995 10 16 0.00 0.00
1:56 am 01:56 Mostly Cloudy 42 5.6 33 0.6 71 71 NW 22 35 29.41 996 10 16 0.00 0.00
2:33 am 02:33 Cloudy 39 4 34 1 81 81 NW 28 44 29.50 999 10 16 0.00 0.00
2:56 am 02:56 Cloudy 38 3.3 32 0 79 79 NW 24 39 29.46 998 10 16 0.00 0.00
3:51 am 03:51 Windy with Snow Likely 34 1 30 -1 87 87 NW 22 35 29.62 1003 2 3 0.00 0.00
3:52 am 03:52 Windy with Snow Likely 33 0.6 31 -0.6 92 92 NW 22 35 29.55 1001 2 3 0.00 0.00
4:03 am 04:03 Windy with Snow Likely 32 0 30 -1 93 93 NNW 29 46 29.62 1003 2 3 0.00 0.00
4:07 am 04:07 Windy with Snow Likely 32 0 30 -1 93 93 NNW 25 41 29.62 1003 2 2 0.00 0.00
4:41 am 04:41 Windy with Snow Likely 32 0 30 -1 93 93 NW 21 33 29.65 1004 3 5 0.00 0.00
4:56 am 04:56 Windy with Snow Likely 32 0 30 -1.1 92 92 WNW 30 48 29.58 1002 3 5 0.01 0.25
5:03 am 05:03 Windy with Snow Likely 32 0 30 -1 93 93 WNW 24 39 29.67 1005 3 5 0.00 0.00
5:25 am 05:25 Windy with Snow Likely 30 -1 28 -2 93 93 NW 29 46 29.68 1005 7 11 0.00 0.00
5:56 am 05:56 Cloudy 30 -1.1 27 -2.8 88 88 NW 29 46 29.63 1004 10 16 0.00 0.00
6:04 am 06:04 Cloudy 30 -1 27 -3 86 86 WNW 28 44 29.72 1006 10 16 0.00 0.00
6:26 am 06:26 Windy with Snow Likely 28 -2 25 -4 86 86 NW 30 48 29.75 1007 2 3 0.00 0.00
6:31 am 06:31 Windy with Snow Likely 28 -2 25 -4 86 86 NW 29 46 29.75 1007 3 5 0.00 0.00
6:39 am 06:39 Windy with Snow Likely 28 -2 25 -4 86 86 NW 29 46 29.75 1007 6 10 0.00 0.00
6:45 am 06:45 Windy with Snow Likely 28 -2 25 -4 86 86 NW 31 50 29.76 1008 3 4 0.00 0.00
6:51 am 06:51 Windy with Snow Likely 27 -3 23 -5 86 86 NW 31 50 29.78 1008 1 2 0.00 0.00
6:56 am 06:56 Windy with Snow Likely 26 -3.3 23 -5 88 88 NW 30 48 29.70 1006 1 2 0.00 0.00
7:21 am 07:21 Windy with Snow Likely 25 -4 21 -6 86 86 NW 28 44 29.80 1009 2 3 0.00 0.00
7:29 am 07:29 Windy with Snow Likely 25 -4 19 -7 80 80 NW 37 59 29.79 1009 1 2 0.00 0.00
7:36 am 07:36 Windy with Snow Likely 23 -5 19 -7 86 86 NW 33 54 29.80 1009 1 2 0.00 0.00
7:56 am 07:56 Windy with Snow Likely 23 -5 19 -7.2 85 85 NW 29 46 29.74 1007 2 3 0.00 0.00
8:04 am 08:04 Windy with Snow Likely 23 -5 19 -7 86 86 NW 26 43 29.83 1010 1 2 0.00 0.00
8:25 am 08:25 Windy with Snow Likely 21 -6 18 -8 86 86 NW 30 48 29.85 1011 1 1 0.00 0.00
8:37 am 08:37 Windy with Snow Likely 21 -6 18 -8 86 86 NW 25 41 29.87 1012 1 2 0.00 0.00
8:50 am 08:50 Windy with Snow Likely 21 -6 18 -8 86 86 NW 29 46 29.87 1012 2 2 0.00 0.00
8:56 am 08:56 Windy with Snow Likely 21 -6.1 17 -8.3 85 85 NW 25 41 29.78 1009 3 5 0.00 0.00
9:07 am 09:07 Windy with Snow Likely 21 -6 18 -8 86 86 NW 31 50 29.88 1012 3 4 0.00 0.00
9:15 am 09:15 Windy with Snow Likely 21 -6 18 -8 86 86 NW 32 52 29.88 1012 1 2 0.00 0.00
9:21 am 09:21 Windy with Snow Likely 21 -6 18 -8 86 86 NW 36 57 29.88 1012 1 1 0.00 0.00
9:26 am 09:26 Cloudy with Snow 19 -7 16 -9 86 86 NW 36 57 29.90 1013 0 0 0.00 0.00
9:35 am 09:35 Windy with Snow Likely 19 -7 16 -9 86 86 NW 28 44 29.92 1013 1 1 0.00 0.00
9:48 am 09:48 Windy with Snow Likely 19 -7 16 -9 86 86 NW 26 43 29.94 1014 1 1 0.00 0.00
9:56 am 09:56 Windy with Snow Likely 20 -6.7 17 -8.3 89 89 NW 30 48 29.84 1011 1 1 0.00 0.00
10:05 am 10:05 Windy with Snow Likely 19 -7 18 -8 93 93 NW 21 33 29.96 1015 1 2 0.00 0.00
10:22 am 10:22 Windy with Snow Likely 21 -6 18 -8 86 86 NW 30 48 29.95 1014 1 1 0.00 0.00
10:28 am 10:28 Cloudy with Snow 21 -6 18 -8 86 86 NW 26 43 29.95 1014 1 1 0.00 0.00
10:32 am 10:32 Cloudy with Snow 21 -6 18 -8 86 86 NW 25 41 29.95 1014 0 0 0.00 0.00
10:39 am 10:39 Cloudy with Heavy Snow 19 -7 18 -8 93 93 NW 32 52 29.97 1015 0 0 0.00 0.00
10:56 am 10:56 Cloudy with Heavy Snow 21 -6.1 18 -7.8 88 88 NW 25 41 29.89 1012 0 0 0.00 0.00
11:23 am 11:23 Cloudy with Snow 21 -6 19 -7 93 93 NW 20 31 29.99 1016 1 1 0.00 0.00
11:56 am 11:56 Cloudy with Snow 22 -5.6 19 -7.2 89 89 NW 28 44 29.91 1013 0 0 0.00 0.00
12:56 pm 12:56 Cloudy with Snow 22 -5.6 19 -7.2 89 89 NNW 31 50 29.94 1014 0 0 0.00 0.00
1:18 pm 13:18 Cloudy with Snow 21 -6 19 -7 93 93 NNW 35 56 30.03 1017 0 0 0.00 0.00
1:28 pm 13:28 Cloudy with Snow 21 -6 18 -8 86 86 NNW 43 69 30.03 1017 0 0 0.00 0.00
1:33 pm 13:33 Cloudy with Snow 21 -6 18 -8 86 86 NNW 35 56 30.04 1017 0 0 0.00 0.00
1:39 pm 13:39 Windy with Snow Likely 21 -6 18 -8 86 86 NNW 28 44 30.06 1018 1 1 0.00 0.00
1:56 pm 13:56 Windy with Snow Likely 21 -6.1 17 -8.3 85 85 NNW 33 54 29.98 1015 1 1 0.00 0.00
2:03 pm 14:03 Windy with Snow Likely 21 -6 18 -8 86 86 NNW 29 46 30.09 1019 1 2 0.00 0.00
2:06 pm 14:06 Windy with Snow Likely 21 -6 18 -8 86 86 NNW 35 56 30.08 1019 1 1 0.00 0.00
2:28 pm 14:28 Cloudy with Snow 21 -6 16 -9 80 80 NNW 28 44 30.11 1020 1 1 0.00 0.00
2:38 pm 14:38 Mostly Cloudy with Light Snow 21 -6 16 -9 80 80 NNW 29 46 30.11 1020 1 1 0.00 0.00
2:56 pm 14:56 Partly Cloudy with Scattered Snow Showers 21 -6.1 15 -9.4 78 78 NNW 25 41 30.05 1018 1 2 0.00 0.00
3:06 pm 15:06 Mostly Cloudy with Light Snow 21 -6 14 -10 74 74 NNW 29 46 30.13 1020 1 1 0.00 0.00
3:13 pm 15:13 Partly Cloudy with Isolated Snow Showers 21 -6 16 -9 80 80 NNW 30 48 30.14 1021 1 2 0.00 0.00
3:23 pm 15:23 Partly Cloudy with Isolated Snow Showers 21 -6 16 -9 80 80 NNW 25 41 30.15 1021 3 5 0.00 0.00
3:56 pm 15:56 Mostly Cloudy with Light Snow 23 -5 16 -8.9 74 74 NW 25 41 30.09 1019 8 13 0.00 0.00
4:56 pm 16:56 Windy with Snow Likely 23 -5 15 -9.4 72 72 NW 25 41 30.11 1020 7 11 0.00 0.00
5:56 pm 17:56 Clear 21 -6.1 13 -10.6 71 71 NW 23 37 30.16 1021 10 16 0.00 0.00
6:56 pm 18:56 Clear 20 -6.7 12 -11.1 71 71 NW 18 30 30.19 1022 10 16 0.00 0.00
7:56 pm 19:56 Clear 20 -6.7 12 -11.1 71 71 WNW 16 26 30.21 1023 10 16 0.00 0.00
8:56 pm 20:56 Clear 18 -7.8 10 -12.2 71 71 WNW 15 24 30.22 1023 10 16 0.00 0.00
9:56 pm 21:56 Clear 18 -7.8 10 -12.2 71 71 WNW 14 22 30.22 1023 10 16 0.00 0.00
10:56 pm 22:56 Clear 17 -8.3 9 -12.8 70 70 WNW 14 22 30.19 1022 10 16 0.00 0.00
11:56 pm 23:56 Clear 16 -8.9 9 -12.8 74 74 WNW 13 20 30.19 1022 10 16 0.00 0.00

Powered by AerisWeather